sat.trackr.live / text

‹ back to catalog

KUIPER-00167

NORAD 65780 · 2025-217U

PAYLOAD ACTIVE UNKNOWN

§ Identity

Operator
Country
US
Launch date
2025-09-25
Launch site
AFETR
Launch vehicle
Mass (kg)
RCS (m²)

External: N2YO · Heavens-Above · Gunter

§ Orbital elements

Epoch: 2026-05-25T03:47:41.383968Z

Period
97.30 min
Inclination
51.8965°
Eccentricity
0.0000872
Mean motion
14.79938296 rev/d
Perigee alt
628.9 km
Apogee alt
630.1 km
Semi-major
7,007.7 km
B*
2.5117e-4
RAAN
67.3893°
Arg perigee
94.7608°
Mean anomaly
265.3454°
Rev number
3,616

§ Raw data

KUIPER-001671 65780U 25217U   26145.15811787  .00001694  00000+0  25117-3 0  99972 65780  51.8965  67.3893 0000872  94.7608 265.3454 14.79938296 36162

JSON: /api/v1/satellites/65780 · /tle

For live sub-satellite position, see the globe view (requires WebGL).

§ Visibility from observer

Set your observer location to see the next 7 days of passes ≥ 10°. The values pass through the URL so the page stays shareable.

No JS? Fill the form by hand. The geolocation button needs JavaScript.